This demonstration page uses our WeatherBlox Daily Observations layout. Learn more.

Left ArrowRight Arrow

40.97296, -117.73568

Hourly Observations for August 3, 2016

Temp ( °F °C ) Dew Point ( °F °C ) Humidity (%) Winds ( mph kmh ) Pressure ( in mb ) Visibility ( mi km ) Precip ( " mm )
12:56 am 00:56 Clear 70 21.1 21 -6.1 16 16 NNW 16 26 29.93 1013 10 16 0.00 0.00
1:56 am 01:56 Clear 70 21.1 23 -5 17 17 NW 13 20 29.94 1014 10 16 0.00 0.00
2:56 am 02:56 Clear 64 17.8 24 -4.4 22 22 NW 9 15 29.97 1015 10 16 0.00 0.00
3:56 am 03:56 Clear 60 15.6 24 -4.4 25 25 NW 10 17 29.99 1016 10 16 0.00 0.00
4:56 am 04:56 Clear 56 13.3 24 -4.4 29 29 NW 7 11 30.02 1017 10 16 0.00 0.00
5:56 am 05:56 Sunny 56 13.3 22 -5.6 27 27 NW 8 13 30.03 1017 10 16 0.00 0.00
6:56 am 06:56 Sunny 61 16.1 22 -5.6 22 22 NW 7 11 30.06 1018 10 16 0.00 0.00
7:56 am 07:56 Sunny 67 19.4 23 -5 19 19 NNE 3 6 30.06 1018 10 16 0.00 0.00
8:56 am 08:56 Sunny 70 21.1 25 -3.9 18 18 Calm 30.09 1019 10 16 0.00 0.00
9:56 am 09:56 Sunny 76 24.4 22 -5.6 13 13 NNE 8 13 30.06 1018 10 16 0.00 0.00
10:56 am 10:56 Sunny 80 26.7 24 -4.4 13 13 VRB 3 6 30.05 1018 10 16 0.00 0.00
11:56 am 11:56 Sunny 82 27.8 24 -4.4 12 12 undefined N/A 30.04 1017 10 16 0.00 0.00
12:56 pm 12:56 Sunny 85 29.4 25 -3.9 11 11 VRB 7 11 30.01 1016 10 16 0.00 0.00
1:56 pm 13:56 Sunny 88 31.1 23 -5 9 9 N 10 17 29.99 1016 10 16 0.00 0.00
2:56 pm 14:56 Sunny 89 31.7 21 -6.1 8 8 NW 8 13 29.97 1015 10 16 0.00 0.00
3:56 pm 15:56 Sunny 91 32.8 18 -7.8 7 7 WNW 9 15 29.95 1014 10 16 0.00 0.00
4:56 pm 16:56 Sunny 90 32.2 14 -10 6 6 WNW 9 15 29.94 1014 10 16 0.00 0.00
5:56 pm 17:56 Sunny 90 32.2 15 -9.4 6 6 NW 6 9 29.93 1014 10 16 0.00 0.00
6:56 pm 18:56 Sunny 87 30.6 13 -10.6 6 6 N 12 19 29.92 1013 10 16 0.00 0.00
7:56 pm 19:56 Sunny 79 26.1 14 -10 8 8 N 7 11 29.92 1013 10 16 0.00 0.00
8:56 pm 20:56 Clear 70 21.1 19 -7.2 14 14 NE 5 7 29.95 1014 10 16 0.00 0.00
9:56 pm 21:56 Clear 74 23.3 14 -10 10 10 NNE 15 24 29.95 1014 10 16 0.00 0.00
10:56 pm 22:56 Clear 72 22.2 12 -11.1 10 10 NE 17 28 29.95 1014 10 16 0.00 0.00
11:56 pm 23:56 Clear 71 21.7 14 -10 11 11 NE 16 26 29.95 1014 10 16 0.00 0.00

Powered by AerisWeather